Location: Conjunto Santa Maria
(19.9513°S, 43.9599°W)
Time: 13:25:54
(UTC+00:00)

Cosmos 1656 Rocket - Pass Details

Date: 21 January 2021
Orbit: 797 x 845 km, 71.1° (Epoch: 04 March)

Event Time Altitude Azimuth Distance (km) Brightness Sun altitude
Rises 23:43:43 0° 199° (SSW) 3,414 7.7 -26.3°
Reaches altitude 10° 23:46:11 10° 200° (SSW) 2,477 6.8 -26.8°
Maximum altitude 23:51:53 80° 285° (WNW) 864 3.7 -27.9°
Enters shadow 23:52:11 76° 326° (NNW) 873 3.6 -27.9°
